Voltar ao catálogo

FENGYUN 1C DEB

AtivoSSO
NORAD 36729·DEBRIS·🇨🇳 China

Lançado May 10, 1999 de Taiyuan Satellite Launch Center

Loading…

Próximas Passagens (próximas 24 horas)

TLE

AtualizadoSource: Space-Track

Época: Sep 14, 2026, 05:17 UTC

1 36729U 99025EBB 26257.22069826  .00000278  00000-0  17817-3 0  9993
2 36729  98.7370 235.8776 0045617 193.7825 166.2104 14.10551843911350

Acompanhe FENGYUN 1C DEB em tempo real com AllMySat

Download on the App Store